Location: Wien
(48.2082°N, 16.3738°E)
Time: 19:22:23
(UTC+02:00)

Transit 4A - Pass Details

Date: 24 February 2024
Orbit: 871 x 972 km, 66.8° (Epoch: 20 April)

Event Time Altitude Azimuth Distance (km) Brightness Sun altitude
Exits shadow 04:52:26 13° 320° (NW) 2,373 9.7 -19.7°
Maximum altitude 04:54:29 15° 342° (NNW) 2,225 9.8 -19.4°
Drops below altitude 10° 04:57:55 10° 18° (NNE) 2,574 10.5 -18.8°
Sets 05:01:35 0° 40° (NE) 3,498 11.6 -18.2°
